Starlink 30282

operational
NORAD ID: 57883 Int'l Des: 2023-144 Owner: SPXS Country: US Constellation: starlink
LEOCIRCULAR

Über Starlink 30282

Beschreibung wird geladen...

Live-Position

3D-Globus wird geladen...

Nächste Überflüge

Höhenverlauf

Altitude vs Time

uPlot chart will show altitude changes over time

Zweizeiliger Elementsatz

1 57883U 23144V 25352.45473836 .00003413 00000-0 26747-3 0 9992
2 57883 43.0046 8.6410 0001522 280.1132 79.9539 15.02550556125392
Epoch: 18. Dez. 2025 • Age: 23 hours

Aktueller Status

Höhe 561.2 km
Geschwindigkeit 7.59 km/s
Subsatellitenpunkt 34.87°N, 179.22°W
Startdatum 16. Sept. 2023
Alter 2.2 years
Typ internet

Technische Details

Klassifizierung Payload
Masse 730.00 kg
Trockenmasse 700.00 kg
Gesamtmasse 730.00 kg
Länge 0.30 m
Durchmesser 4.10 m
Spannweite 29.00 m
Form Box + pan
Hersteller SPXS
Bus-Typ Starlink V2M
Phasenstatus In Orbit
Besitzer/Staat SPXS/US

Große Konstellationen

Loading constellations...